Location: Bryzozowice
(50.3667°N, 18.9667°E)
Time: 21:56:08
(UTC+00:00)

Cosmos 2184 Rocket - Pass Details

Date: 24 January 2020
Orbit: 959 x 1002 km, 82.9° (Epoch: 25 February)

Event Time Altitude Azimuth Distance (km) Brightness Sun altitude
Rises 16:11:42 0° 196° (SSW) 3,639 7.6 -7.9°
Reaches altitude 10° 16:14:13 10° 199° (SSW) 2,693 6.9 -8.3°
Maximum altitude 16:20:20 68° 282° (WNW) 1,035 4.4 -9.2°
Drops below altitude 10° 16:26:30 10° 6° (N) 2,707 6.1 -10.1°
Sets 16:29:03 0° 9° (N) 3,659 6.7 -10.5°
